Location: Albert Place
(40.7505°N, 111.9230°W)
Time: 14:25:31
(UTC+00:00)

Cosmos 2151 - Pass Details

Date: 13 December 2025
Orbit: 559 x 575 km, 82.5° (Epoch: 17 January)

Event Time Altitude Azimuth Distance (km) Brightness Sun altitude
Rises 13:27:51 0° 188° (S) 2,734 6.5 -13.8°
Reaches altitude 10° 13:30:01 10° 190° (S) 1,845 5.6 -13.5°
Maximum altitude 13:34:05 82° 278° (W) 574 2.8 -12.7°
Drops below altitude 10° 13:38:12 10° 6° (N) 1,868 5.4 -12.0°
Sets 13:40:24 0° 7° (N) 2,773 6.3 -11.6°
